• In Deutschland
  • Länderverzeichnis
  • Für 7 Tage
  • Wassertemperatur
  • Satellitenkarten
  • Wetterkarte
  • Widgets
  • user-avatar
    Anmelden

    Stündliche Wetter Perth

    Heute, 13 Dezember, Mittwoch

    Zeit Temperatur Niederschläge Wind Luftdruck Luftfeuchtigkeit
    00:00 +20°C° 0 mm 6 m/S 759 mmHg 72%
    01:00 +19°C° 0 mm 6 m/S 759 mmHg 74%
    02:00 +19°C° 0 mm 6 m/S 759 mmHg 75%
    03:00 +17°C° 0 mm 5 m/S 759 mmHg 76%
    04:00 +16°C° 0 mm 5 m/S 759 mmHg 77%
    05:00 +16°C° 0 mm 5 m/S 760 mmHg 78%
    06:00 +18°C° 0 mm 4 m/S 760 mmHg 70%
    07:00 +20°C° 0 mm 4 m/S 760 mmHg 62%
    08:00 +22°C° 0 mm 4 m/S 761 mmHg 52%
    09:00 +23°C° 0 mm 4 m/S 761 mmHg 46%
    10:00 +26°C° 0 mm 4 m/S 761 mmHg 41%
    11:00 +27°C° 0 mm 4 m/S 761 mmHg 36%
    12:00 +28°C° 0 mm 5 m/S 760 mmHg 35%
    13:00 +29°C° 0 mm 5 m/S 760 mmHg 35%
    14:00 +29°C° 0 mm 6 m/S 760 mmHg 34%
    15:00 +28°C° 0 mm 6 m/S 760 mmHg 37%
    16:00 +28°C° 0 mm 7 m/S 760 mmHg 40%
    17:00 +27°C° 0 mm 7 m/S 760 mmHg 42%
    18:00 +24°C° 0 mm 7 m/S 760 mmHg 47%
    19:00 +23°C° 0 mm 6 m/S 760 mmHg 52%
    20:00 +22°C° 0 mm 6 m/S 760 mmHg 56%
    21:00 +21°C° 0 mm 6 m/S 761 mmHg 56%
    22:00 +21°C° 0 mm 6 m/S 761 mmHg 56%
    23:00 +21°C° 0 mm 6 m/S 761 mmHg 56%

    Morgen, 14 Dezember, Donnerstag

    Zeit Temperatur Niederschläge Wind Luftdruck Luftfeuchtigkeit
    00:00 +20°C° 0 mm 5 m/S 761 mmHg 57%
    01:00 +20°C° 0 mm 5 m/S 761 mmHg 58%
    02:00 +19°C° 0 mm 5 m/S 761 mmHg 59%
    03:00 +19°C° 0 mm 5 m/S 761 mmHg 61%
    04:00 +18°C° 0 mm 4 m/S 761 mmHg 63%
    05:00 +18°C° 0 mm 4 m/S 761 mmHg 65%
    06:00 +19°C° 0 mm 4 m/S 761 mmHg 60%
    07:00 +21°C° 0 mm 4 m/S 761 mmHg 55%
    08:00 +22°C° 0 mm 4 m/S 761 mmHg 49%
    09:00 +26°C° 0 mm 3 m/S 761 mmHg 43%
    10:00 +28°C° 0 mm 3 m/S 761 mmHg 37%
    11:00 +30°C° 0 mm 2 m/S 760 mmHg 30%
    12:00 +31°C° 0 mm 3 m/S 760 mmHg 29%
    13:00 +33°C° 0 mm 4 m/S 759 mmHg 28%
    14:00 +34°C° 0 mm 4 m/S 758 mmHg 27%
    15:00 +33°C° 0 mm 5 m/S 758 mmHg 30%
    16:00 +30°C° 0 mm 6 m/S 758 mmHg 34%
    17:00 +29°C° 0 mm 6 m/S 758 mmHg 38%
    18:00 +27°C° 0 mm 6 m/S 758 mmHg 45%
    19:00 +24°C° 0 mm 6 m/S 758 mmHg 53%
    20:00 +22°C° 0 mm 6 m/S 758 mmHg 61%
    21:00 +22°C° 0 mm 6 m/S 758 mmHg 63%
    22:00 +21°C° 0 mm 6 m/S 758 mmHg 64%
    23:00 +21°C° 0 mm 5 m/S 758 mmHg 65%

    übermorgen, 15 Dezember, Freitag

    Zeit Temperatur Niederschläge Wind Luftdruck Luftfeuchtigkeit
    00:00 +21°C° 0 mm 5 m/S 758 mmHg 65%
    01:00 +20°C° 0 mm 5 m/S 757 mmHg 66%
    02:00 +20°C° 0 mm 5 m/S 757 mmHg 66%
    03:00 +20°C° 0 mm 4 m/S 757 mmHg 67%
    04:00 +19°C° 0 mm 4 m/S 757 mmHg 69%
    05:00 +19°C° 0 mm 4 m/S 757 mmHg 71%
    06:00 +21°C° 0 mm 4 m/S 757 mmHg 64%
    07:00 +24°C° 0 mm 3 m/S 757 mmHg 58%
    08:00 +25°C° 0 mm 3 m/S 757 mmHg 51%
    09:00 +28°C° 0 mm 3 m/S 757 mmHg 44%
    10:00 +32°C° 0 mm 4 m/S 756 mmHg 36%
    11:00 +34°C° 0 mm 4 m/S 756 mmHg 29%
    12:00 +35°C° 0 mm 5 m/S 755 mmHg 28%
    13:00 +35°C° 0 mm 5 m/S 754 mmHg 28%
    14:00 +35°C° 0 mm 6 m/S 754 mmHg 27%
    15:00 +34°C° 0 mm 6 m/S 753 mmHg 29%
    16:00 +33°C° 0 mm 7 m/S 753 mmHg 31%
    17:00 +32°C° 0 mm 7 m/S 753 mmHg 33%
    18:00 +29°C° 0 mm 7 m/S 753 mmHg 40%
    19:00 +27°C° 0 mm 6 m/S 753 mmHg 47%
    20:00 +24°C° 0 mm 6 m/S 753 mmHg 53%
    21:00 +24°C° 0 mm 6 m/S 754 mmHg 54%
    22:00 +23°C° 0 mm 6 m/S 754 mmHg 55%
    23:00 +22°C° 0 mm 5 m/S 755 mmHg 56%

    16 Dezember, Samstag

    Zeit Temperatur Niederschläge Wind Luftdruck Luftfeuchtigkeit
    00:00 +22°C° 0 mm 5 m/S 755 mmHg 58%
    01:00 +22°C° 0 mm 5 m/S 754 mmHg 60%
    02:00 +22°C° 0 mm 5 m/S 754 mmHg 62%
    03:00 +21°C° 0 mm 4 m/S 754 mmHg 64%
    04:00 +21°C° 0 mm 4 m/S 754 mmHg 66%
    05:00 +20°C° 0 mm 4 m/S 754 mmHg 67%
    06:00 +22°C° 0 mm 3 m/S 754 mmHg 62%
    07:00 +24°C° 0 mm 3 m/S 755 mmHg 56%
    08:00 +26°C° 0 mm 3 m/S 755 mmHg 51%
    09:00 +27°C° 0 mm 3 m/S 755 mmHg 46%
    10:00 +29°C° 0 mm 4 m/S 754 mmHg 41%
    11:00 +32°C° 0 mm 4 m/S 754 mmHg 36%
    12:00 +32°C° 0 mm 5 m/S 754 mmHg 36%
    13:00 +30°C° 0 mm 6 m/S 754 mmHg 37%
    14:00 +30°C° 0 mm 7 m/S 753 mmHg 37%
    15:00 +28°C° 0 mm 7 m/S 753 mmHg 43%
    16:00 +27°C° 0 mm 7 m/S 753 mmHg 49%
    17:00 +26°C° 0 mm 7 m/S 754 mmHg 54%
    18:00 +23°C° 0 mm 6 m/S 754 mmHg 61%
    19:00 +21°C° 0 mm 6 m/S 754 mmHg 67%
    20:00 +20°C° 0 mm 5 m/S 754 mmHg 74%
    21:00 +20°C° 0 mm 5 m/S 754 mmHg 74%
    22:00 +20°C° 0 mm 5 m/S 754 mmHg 74%
    23:00 +20°C° 0 mm 5 m/S 754 mmHg 74%

    17 Dezember, Sonntag

    Zeit Temperatur Niederschläge Wind Luftdruck Luftfeuchtigkeit
    00:00 +20°C° 0,2 mm 5 m/S 754 mmHg 75%
    01:00 +19°C° 0,2 mm 6 m/S 753 mmHg 77%
    02:00 +19°C° 0,2 mm 6 m/S 753 mmHg 78%
    03:00 +19°C° 0,1 mm 6 m/S 753 mmHg 76%
    04:00 +17°C° 0,1 mm 6 m/S 753 mmHg 75%
    05:00 +17°C° 0,1 mm 6 m/S 753 mmHg 73%
    06:00 +17°C° 0,2 mm 7 m/S 753 mmHg 72%
    07:00 +17°C° 0,2 mm 7 m/S 753 mmHg 70%
    08:00 +17°C° 0,2 mm 8 m/S 754 mmHg 69%
    09:00 +17°C° 0,2 mm 8 m/S 754 mmHg 63%
    10:00 +17°C° 0,2 mm 8 m/S 754 mmHg 58%
    11:00 +18°C° 0,2 mm 8 m/S 754 mmHg 52%
    12:00 +18°C° 0,1 mm 9 m/S 754 mmHg 49%
    13:00 +18°C° 0,1 mm 9 m/S 754 mmHg 45%
    14:00 +18°C° 0,1 mm 9 m/S 754 mmHg 42%
    15:00 +18°C° 0 mm 9 m/S 754 mmHg 42%
    16:00 +18°C° 0 mm 9 m/S 754 mmHg 43%
    17:00 +18°C° 0 mm 9 m/S 754 mmHg 43%
    18:00 +17°C° 0,1 mm 8 m/S 754 mmHg 48%
    19:00 +16°C° 0,1 mm 8 m/S 755 mmHg 53%
    20:00 +15°C° 0,1 mm 8 m/S 755 mmHg 58%
    21:00 +15°C° 0,1 mm 8 m/S 755 mmHg 60%
    22:00 +15°C° 0,1 mm 8 m/S 755 mmHg 61%
    23:00 +15°C° 0,1 mm 8 m/S 755 mmHg 62%

    18 Dezember, Montag

    Zeit Temperatur Niederschläge Wind Luftdruck Luftfeuchtigkeit
    00:00 +15°C° 0,1 mm 9 m/S 755 mmHg 63%
    01:00 +15°C° 0,1 mm 9 m/S 755 mmHg 64%
    02:00 +15°C° 0,1 mm 9 m/S 754 mmHg 64%
    03:00 +15°C° 0,2 mm 9 m/S 754 mmHg 65%
    04:00 +15°C° 0,2 mm 8 m/S 755 mmHg 66%
    05:00 +16°C° 0,2 mm 8 m/S 755 mmHg 66%
    06:00 +16°C° 0,2 mm 8 m/S 755 mmHg 65%
    07:00 +17°C° 0,2 mm 9 m/S 756 mmHg 64%
    08:00 +17°C° 0,2 mm 9 m/S 756 mmHg 63%
    09:00 +18°C° 0,1 mm 9 m/S 756 mmHg 58%
    10:00 +19°C° 0,1 mm 9 m/S 756 mmHg 54%
    11:00 +21°C° 0,1 mm 9 m/S 756 mmHg 49%
    12:00 +21°C° 0,1 mm 9 m/S 756 mmHg 51%
    13:00 +20°C° 0,1 mm 8 m/S 756 mmHg 52%
    14:00 +20°C° 0,1 mm 8 m/S 756 mmHg 54%
    15:00 +20°C° 0,1 mm 8 m/S 756 mmHg 54%
    16:00 +20°C° 0,1 mm 8 m/S 756 mmHg 55%
    17:00 +20°C° 0,1 mm 7 m/S 756 mmHg 55%
    18:00 +18°C° 0 mm 7 m/S 757 mmHg 59%
    19:00 +17°C° 0 mm 6 m/S 757 mmHg 63%
    20:00 +16°C° 0 mm 5 m/S 758 mmHg 67%
    21:00 +16°C° 0 mm 5 m/S 758 mmHg 69%
    22:00 +15°C° 0 mm 5 m/S 758 mmHg 71%
    23:00 +15°C° 0 mm 5 m/S 759 mmHg 73%
    Mehr zeigen